DELTA 1 DEB, 27728

Orbit data source: Space-Track

DELTA 1 DEB, 27728 is space debris in LEO originally from a launch on Thu, 29 Jul 1976 UTC launched from the Air Force Western Test Range (AFWTR). Debris objects in space refer to the collection of defunct objects orbiting the Earth. Examples of debris include non-operational satellites, rocket bodies, and fragments generated from explosions, collisions, or faulty payload assembly.

Loading next visibility...
Identifier
27728, 1976-077FT
Orbit
LEO
Country
Flag of USUS
Related business
Manufacturer
Unknown
Mission
Spacecraft
Bus & Motor
Unknown
Mass
Unknown
Launch date (UTC)
1976-07-29 (49 years ago)
Launch vehicle
Unknown
Launch site
Air Force Western Test Range (AFWTR)
Object type
Payload
Rocket body
Debris
Shape & HBR
Unknown shape, 0.1 m
Radar Cross Section
Small (<0.1 m²)

Expand to show TLE details & history
Last TLE update: 18 hours ago

TLE from 18 hours ago
0 DELTA 1 DEB
1 27728U 76077FT  25343.10657502 -.00000280  00000-0 -29133-2 0  9998
2 27728 102.4420 100.4648 0382792 133.7528  48.1075 11.85560523403754
Epoch: 2025-12-09T02:33Z
TLE epoch observation values (Epoch: 2025-12-09T02:33:28.081Z)
Latitude
-5.23878°
Longitude
162.84829°
Altitude
1,548.622 km
Speed
7.179 km/s
True Right ascension
18h 37m 14s
True Declination
-5° 12' 39"
Sunlit
Object was in daylight at epoch
Visualization orbit readout
Latitude
Unknown
Longitude
Unknown
Altitude
Unknown
Speed
Unknown
Apparent Right ascension
Unknown
Apparent Declination
Unknown
Sunlit
N/A
Visualization observer readout
Local Sidereal Time
19:10:20
Azimuth
Unknown
Elevation
Unknown
Doppler factor
Unknown
Orbital elements
Apogee altitude
2,054.734 km
Perigee altitude
1,432.929 km
Semi-major axis
8,121.969 km
Eccentricity
0.03828
Inclination
102.442°
RAAN
100.4648°
Arg. of periapsis
133.7528°
True anomaly
51.47845°
Mean anomaly
48.1075°
Eccentric anomaly
49.78225°
Mean motion
2.96518 °/min
Orbital period
121.41 mins
BSTAR
-0.0029133
Loading maneuver chart data...
Computing Atmospheric mass density...
Loading historical data...
Loading historical data...
Loading historical data...
Loading historical data...
Loading historical data...
Loading historical data...
Loading historical data...

Documentation

Showing up to 5 results
|